Location: Unspecified
(44.4377°N, 88.0525°W)
Time: 08:14:37
(UTC-05:00)

Cosmos 2058 - Visible Passes

Search period start: 24 May 2015 00:00
Search period end: 03 June 2015 00:00
Orbit: 567 x 588 km, 82.5° (Epoch: 23 May)

Date Brightness Start Highest point End Pass type
(mag) Time Alt. Az. Time Alt. Az. Time Alt. Az.
24 May 2.7 02:09:20 79° SSW 02:09:35 87° W 02:13:48 10° N visible
25 May 5.5 00:37:27 11° E 00:37:30 11° E 00:38:53 10° ENE visible
25 May 2.9 02:13:44 61° WSW 02:14:01 63° W 02:18:12 10° N visible
26 May 5.1 00:41:51 15° E 00:41:51 15° E 00:44:19 10° NE visible
26 May 3.4 02:18:08 45° W 02:18:28 46° WNW 02:22:32 10° N visible
27 May 4.8 00:46:14 20° E 00:46:14 20° E 00:49:16 10° NE visible
27 May 3.9 02:22:31 33° W 02:22:57 34° WNW 02:26:48 10° N visible
28 May 4.4 00:50:36 27° E 00:50:36 27° E 00:54:02 10° NNE visible
28 May 4.3 02:26:53 25° W 02:27:28 26° WNW 02:30:59 10° NNW visible
29 May 3.9 00:54:57 36° E 00:54:57 36° E 00:58:41 10° NNE visible
29 May 4.7 02:31:14 19° W 02:32:00 20° WNW 02:35:03 10° NNW visible
30 May 3.4 00:59:17 49° E 00:59:17 49° E 01:03:15 10° NNE visible
30 May 5.0 02:35:35 14° W 02:36:34 15° WNW 02:38:58 10° NNW visible
31 May 3.0 01:03:37 69° E 01:03:37 69° E 01:07:44 10° NNE visible
31 May 5.3 02:39:54 10° W 02:41:10 11° WNW 02:42:27 10° NW visible
01 Jun 2.8 01:07:55 86° WNW 01:07:55 86° WNW 01:12:10 10° N visible
01 Jun 5.3 23:35:56 11° E 23:35:56 11° E 23:37:17 10° ENE visible
02 Jun 3.0 01:12:14 63° W 01:12:19 63° W 01:16:32 10° N visible
02 Jun 5.0 23:40:14 15° E 23:40:14 15° E 23:42:40 10° NE visible
